EZY78AL EGCC-EDDB

Flight info

Callsign EZY78AL
Flight time 1h 30m
Altitude 37000
Route DESIG L603 LAMSO DCT EVELI DCT BATEL T207 OGBER OGBER1R
Aircraft A320/M-SDE3FGHIRWY/LB1

Departure

Time 2026-05-05 14:23
Airport Manchester Airport (EGCC)

Arrival

Time 2026-05-05 15:53
Airport Berlin Brandenburg Airport (EDDB)
Time Latitude Longitude Altitude Speed Heading
2026-05-05 13:57 53.35935 -2.27407 255 ft 0 kts 276°
2026-05-05 14:12 53.35934 -2.27383 255 ft 4 kts 267°
2026-05-05 14:13 53.35940 -2.27342 255 ft 4 kts 233°
2026-05-05 14:13 53.35959 -2.27319 255 ft 4 kts 180°
2026-05-05 14:13 53.35944 -2.27319 255 ft 4 kts 179°
2026-05-05 14:13 53.35943 -2.27319 255 ft 0 kts 179°
2026-05-05 14:16 53.35942 -2.27319 255 ft 2 kts 179°
2026-05-05 14:17 53.35894 -2.27317 255 ft 9 kts 179°
2026-05-05 14:17 53.35834 -2.27316 255 ft 8 kts 179°
2026-05-05 14:17 53.35785 -2.27332 255 ft 7 kts 217°
2026-05-05 14:17 53.35738 -2.27424 255 ft 13 kts 231°
2026-05-05 14:18 53.35671 -2.27564 247 ft 19 kts 231°
2026-05-05 14:18 53.35562 -2.27748 239 ft 25 kts 224°
2026-05-05 14:18 53.35441 -2.27946 238 ft 24 kts 224°
2026-05-05 14:18 53.35328 -2.28128 239 ft 18 kts 223°
2026-05-05 14:19 53.35231 -2.28298 234 ft 22 kts 230°
2026-05-05 14:19 53.35127 -2.28515 227 ft 26 kts 232°
2026-05-05 14:19 53.35039 -2.28696 229 ft 18 kts 228°
2026-05-05 14:19 53.34943 -2.28866 226 ft 22 kts 226°
2026-05-05 14:20 53.34838 -2.29052 218 ft 17 kts 228°
2026-05-05 14:20 53.34757 -2.29214 214 ft 13 kts 231°
2026-05-05 14:20 53.34673 -2.29331 211 ft 17 kts 199°
2026-05-05 14:20 53.34598 -2.29336 213 ft 9 kts 167°
2026-05-05 14:21 53.34551 -2.29293 213 ft 9 kts 134°
2026-05-05 14:21 53.34558 -2.29185 215 ft 10 kts 51°
2026-05-05 14:21 53.34570 -2.29159 218 ft 0 kts 51°
2026-05-05 14:21 53.34571 -2.29157 213 ft 0 kts 51°
2026-05-05 14:22 53.34573 -2.29153 214 ft 0 kts 51°
2026-05-05 14:22 53.34617 -2.29062 218 ft 39 kts 51°
2026-05-05 14:22 53.34955 -2.28371 233 ft 110 kts 51°
2026-05-05 14:22 53.35553 -2.27132 365 ft 152 kts 51°
2026-05-05 14:23 53.36197 -2.25764 1080 ft 152 kts 50°
2026-05-05 14:23 53.36875 -2.24352 1687 ft 162 kts 50°
2026-05-05 14:23 53.37632 -2.22767 2074 ft 185 kts 50°
2026-05-05 14:23 53.38484 -2.20977 2453 ft 207 kts 49°
2026-05-05 14:24 53.39424 -2.18997 2844 ft 229 kts 50°
2026-05-05 14:24 53.40464 -2.16802 3393 ft 250 kts 50°
2026-05-05 14:24 53.41558 -2.14479 4311 ft 257 kts 50°
2026-05-05 14:24 53.42676 -2.12092 4853 ft 261 kts 50°
2026-05-05 14:25 53.43805 -2.09680 5542 ft 263 kts 51°
2026-05-05 14:25 53.44937 -2.07261 6505 ft 266 kts 51°
2026-05-05 14:25 53.46097 -2.04802 7436 ft 270 kts 51°
2026-05-05 14:25 53.47268 -2.02303 8307 ft 275 kts 51°
2026-05-05 14:26 53.48458 -1.99766 9160 ft 279 kts 51°
2026-05-05 14:26 53.49675 -1.97188 9988 ft 284 kts 51°
2026-05-05 14:26 53.50958 -1.94535 10463 ft 304 kts 46°
2026-05-05 14:26 53.52748 -1.92517 10854 ft 320 kts 16°
2026-05-05 14:27 53.54972 -1.92288 11509 ft 325 kts 346°
2026-05-05 14:27 53.56974 -1.93897 12263 ft 327 kts 318°
2026-05-05 14:27 53.58535 -1.96691 13049 ft 329 kts 312°
2026-05-05 14:27 53.60404 -1.98927 13778 ft 337 kts 337°
2026-05-05 14:28 53.62736 -1.99489 14473 ft 347 kts
2026-05-05 14:28 53.65042 -1.98170 15151 ft 357 kts 31°
2026-05-05 14:28 53.66813 -1.95186 15798 ft 366 kts 57°
2026-05-05 14:28 53.67814 -1.91226 16450 ft 371 kts 75°
2026-05-05 14:29 53.68148 -1.86894 17098 ft 375 kts 92°
2026-05-05 14:29 53.67618 -1.82604 17713 ft 376 kts 116°
2026-05-05 14:29 53.66101 -1.79062 18321 ft 374 kts 142°
2026-05-05 14:29 53.63994 -1.76512 18939 ft 374 kts 149°
2026-05-05 14:30 53.61792 -1.74143 19570 ft 377 kts 151°
2026-05-05 14:30 53.59548 -1.71824 20173 ft 380 kts 151°
2026-05-05 14:30 53.57283 -1.69499 20757 ft 383 kts 151°
2026-05-05 14:30 53.55003 -1.67133 21317 ft 386 kts 151°
2026-05-05 14:31 53.52748 -1.64762 21852 ft 390 kts 150°
2026-05-05 14:31 53.50507 -1.62161 22369 ft 395 kts 142°
2026-05-05 14:31 53.48556 -1.58877 22880 ft 401 kts 131°
2026-05-05 14:31 53.46988 -1.54966 23386 ft 407 kts 120°
2026-05-05 14:32 53.45877 -1.50565 23871 ft 413 kts 109°
2026-05-05 14:32 53.45050 -1.45937 24345 ft 415 kts 108°
2026-05-05 14:32 53.44218 -1.41286 24830 ft 417 kts 108°
2026-05-05 14:32 53.43652 -1.38137 25149 ft 419 kts 108°
2026-05-05 14:33 53.42803 -1.33449 25596 ft 421 kts 109°
2026-05-05 14:33 53.41946 -1.28733 26029 ft 424 kts 109°
2026-05-05 14:33 53.41082 -1.23993 26476 ft 426 kts 109°
2026-05-05 14:33 53.40217 -1.19233 26907 ft 428 kts 109°
2026-05-05 14:34 53.39359 -1.14507 27316 ft 430 kts 109°
2026-05-05 14:34 53.38482 -1.09701 27719 ft 432 kts 109°
2026-05-05 14:34 53.37599 -1.04881 28117 ft 434 kts 109°
2026-05-05 14:34 53.36708 -1.00032 28507 ft 436 kts 109°
2026-05-05 14:35 53.35809 -0.95166 28886 ft 438 kts 109°
2026-05-05 14:35 53.34904 -0.90278 29256 ft 440 kts 109°
2026-05-05 14:35 53.33994 -0.85379 29620 ft 442 kts 109°
2026-05-05 14:35 53.33078 -0.80458 29976 ft 444 kts 109°
2026-05-05 14:36 53.32156 -0.75521 30319 ft 446 kts 109°
2026-05-05 14:36 53.31231 -0.70562 30646 ft 447 kts 109°
2026-05-05 14:36 53.30302 -0.65589 30966 ft 449 kts 109°
2026-05-05 14:36 53.29369 -0.60594 31270 ft 451 kts 109°
2026-05-05 14:37 53.28428 -0.55586 31586 ft 452 kts 109°
2026-05-05 14:37 53.27481 -0.50577 31928 ft 452 kts 109°
2026-05-05 14:37 53.26533 -0.45578 32343 ft 450 kts 109°
2026-05-05 14:37 53.25589 -0.40603 32754 ft 449 kts 109°
2026-05-05 14:38 53.24645 -0.35640 33172 ft 447 kts 109°
2026-05-05 14:38 53.23702 -0.30694 33555 ft 446 kts 109°
2026-05-05 14:38 53.22763 -0.25773 33950 ft 445 kts 109°
2026-05-05 14:38 53.21824 -0.20853 34335 ft 443 kts 109°
2026-05-05 14:39 53.20883 -0.15950 34687 ft 443 kts 109°
2026-05-05 14:39 53.19941 -0.11066 35006 ft 443 kts 109°
2026-05-05 14:39 53.18996 -0.06179 35298 ft 443 kts 109°
2026-05-05 14:39 53.18049 -0.01295 35577 ft 443 kts 109°
2026-05-05 14:40 53.17111 0.03527 35838 ft 443 kts 110°
2026-05-05 14:40 53.16146 0.08478 36054 ft 445 kts 110°
2026-05-05 14:40 53.15199 0.13328 36268 ft 446 kts 110°
2026-05-05 14:40 53.14240 0.18243 36488 ft 447 kts 110°
2026-05-05 14:41 53.13274 0.23196 36718 ft 448 kts 110°
2026-05-05 14:41 53.12310 0.28122 36932 ft 448 kts 110°
2026-05-05 14:41 53.10376 0.37924 36998 ft 444 kts 110°
2026-05-05 14:42 53.08440 0.47654 36999 ft 442 kts 110°
2026-05-05 14:42 53.06507 0.57343 36998 ft 440 kts 110°
2026-05-05 14:43 53.04578 0.66981 36988 ft 439 kts 110°
2026-05-05 14:43 53.02642 0.76587 36989 ft 438 kts 110°
2026-05-05 14:44 53.00700 0.86175 36992 ft 437 kts 110°
2026-05-05 14:44 52.98764 0.95671 36995 ft 436 kts 111°
2026-05-05 14:45 52.97246 1.05423 36995 ft 438 kts 102°
2026-05-05 14:45 52.96111 1.15365 36995 ft 438 kts 103°
2026-05-05 14:46 52.94962 1.25278 36995 ft 438 kts 103°
2026-05-05 14:46 52.93798 1.35180 36996 ft 438 kts 103°
2026-05-05 14:47 52.92632 1.45091 36990 ft 438 kts 103°
2026-05-05 14:47 52.91456 1.54993 36995 ft 438 kts 103°
2026-05-05 14:48 52.90270 1.64899 36997 ft 438 kts 103°
2026-05-05 14:48 52.89077 1.74794 36998 ft 438 kts 103°
2026-05-05 14:49 52.87877 1.84692 37001 ft 438 kts 103°
2026-05-05 14:49 52.86665 1.94569 37002 ft 438 kts 103°
2026-05-05 14:50 52.85455 2.04452 36999 ft 438 kts 104°
2026-05-05 14:50 52.84230 2.14346 36992 ft 438 kts 104°
2026-05-05 14:51 52.82996 2.24213 36989 ft 438 kts 104°
2026-05-05 14:51 52.81757 2.34022 36987 ft 439 kts 104°
2026-05-05 14:52 52.80506 2.43880 36990 ft 439 kts 104°
2026-05-05 14:52 52.79244 2.53752 36991 ft 439 kts 104°
2026-05-05 14:53 52.77976 2.63633 36988 ft 439 kts 104°
2026-05-05 14:53 52.76695 2.73502 36988 ft 439 kts 104°
2026-05-05 14:54 52.75408 2.83369 36987 ft 440 kts 105°
2026-05-05 14:54 52.74111 2.93230 36985 ft 440 kts 105°
2026-05-05 14:55 52.72487 3.02921 36982 ft 436 kts 114°
2026-05-05 14:55 52.70291 3.12244 36976 ft 436 kts 114°
2026-05-05 14:56 52.68091 3.21581 36976 ft 437 kts 114°
2026-05-05 14:56 52.65879 3.30909 36974 ft 437 kts 115°
2026-05-05 14:57 52.64284 3.40588 36973 ft 443 kts 98°
2026-05-05 14:57 52.64277 3.50759 36971 ft 445 kts 90°
2026-05-05 14:58 52.64474 3.60959 36966 ft 446 kts 91°
2026-05-05 14:58 52.64654 3.71166 36965 ft 446 kts 91°
2026-05-05 14:59 52.64820 3.81326 36969 ft 447 kts 91°
2026-05-05 14:59 52.64991 3.91614 36969 ft 447 kts 91°
2026-05-05 15:00 52.65129 4.00130 36962 ft 448 kts 91°
2026-05-05 15:00 52.65307 4.12070 36957 ft 448 kts 91°
2026-05-05 15:01 52.65442 4.22333 36951 ft 448 kts 91°
2026-05-05 15:01 52.65574 4.32601 36947 ft 448 kts 91°
2026-05-05 15:02 52.65697 4.42876 36944 ft 449 kts 91°
2026-05-05 15:02 52.65812 4.53155 36945 ft 449 kts 91°
2026-05-05 15:03 52.65925 4.63393 36947 ft 449 kts 92°
2026-05-05 15:03 52.66025 4.73693 36945 ft 449 kts 91°
2026-05-05 15:04 52.66118 4.83984 36941 ft 449 kts 92°
2026-05-05 15:04 52.66193 4.94269 36938 ft 449 kts 92°
2026-05-05 15:05 52.66289 5.09717 36931 ft 449 kts 92°
2026-05-05 15:06 52.66341 5.20012 36929 ft 450 kts 92°
2026-05-05 15:06 52.66390 5.30328 36929 ft 450 kts 92°
2026-05-05 15:07 52.66431 5.40622 36933 ft 449 kts 92°
2026-05-05 15:07 52.66465 5.50912 36931 ft 449 kts 92°
2026-05-05 15:08 52.66486 5.61207 36929 ft 449 kts 92°
2026-05-05 15:08 52.66502 5.71480 36912 ft 448 kts 93°
2026-05-05 15:09 52.66505 5.81689 36918 ft 448 kts 93°
2026-05-05 15:09 52.66499 5.91961 36924 ft 448 kts 93°
2026-05-05 15:10 52.66483 6.02259 36915 ft 448 kts 93°
2026-05-05 15:10 52.66458 6.12533 36919 ft 448 kts 93°
2026-05-05 15:11 52.66427 6.22808 36922 ft 449 kts 93°
2026-05-05 15:11 52.66390 6.33087 36913 ft 449 kts 94°
2026-05-05 15:12 52.66339 6.43318 36922 ft 449 kts 94°
2026-05-05 15:12 52.66278 6.53624 36913 ft 449 kts 94°
2026-05-05 15:13 52.66206 6.63925 36920 ft 450 kts 94°
2026-05-05 15:13 52.66129 6.74244 36910 ft 451 kts 94°
2026-05-05 15:14 52.66052 6.84567 36913 ft 451 kts 94°
2026-05-05 15:14 52.65966 6.94901 36912 ft 451 kts 94°
2026-05-05 15:15 52.65859 7.05234 36912 ft 451 kts 94°
2026-05-05 15:15 52.65739 7.15578 36908 ft 452 kts 94°
2026-05-05 15:16 52.65635 7.24187 36907 ft 452 kts 95°
2026-05-05 15:16 52.65509 7.34547 36904 ft 453 kts 95°
2026-05-05 15:17 52.65373 7.44917 36906 ft 453 kts 95°
2026-05-05 15:17 52.65222 7.55290 36906 ft 453 kts 95°
2026-05-05 15:18 52.65063 7.65682 36903 ft 453 kts 95°
2026-05-05 15:18 52.64900 7.76064 36903 ft 454 kts 95°
2026-05-05 15:19 52.64726 7.86456 36911 ft 454 kts 95°
2026-05-05 15:19 52.64541 7.96848 36902 ft 454 kts 95°
2026-05-05 15:20 52.64348 8.07112 36909 ft 440 kts 96°
2026-05-05 15:20 52.64153 8.17178 36907 ft 445 kts 96°
2026-05-05 15:21 52.63942 8.27498 36902 ft 454 kts 96°
2026-05-05 15:21 52.63722 8.37910 36908 ft 456 kts 96°
2026-05-05 15:22 52.63493 8.48345 36908 ft 456 kts 96°
2026-05-05 15:22 52.63255 8.58782 36911 ft 456 kts 96°
2026-05-05 15:23 52.63002 8.69240 36909 ft 457 kts 96°
2026-05-05 15:23 52.62743 8.79683 36908 ft 457 kts 96°
2026-05-05 15:24 52.62477 8.90088 36906 ft 457 kts 96°
2026-05-05 15:24 52.62207 9.00550 36902 ft 457 kts 96°
2026-05-05 15:25 52.61921 9.11023 36900 ft 458 kts 96°
2026-05-05 15:25 52.61622 9.21506 36895 ft 459 kts 96°
2026-05-05 15:26 52.61310 9.32000 36896 ft 459 kts 96°
2026-05-05 15:26 52.60992 9.42485 36888 ft 459 kts 96°
2026-05-05 15:27 52.60665 9.52974 36890 ft 459 kts 96°
2026-05-05 15:27 52.60333 9.63476 36899 ft 460 kts 96°
2026-05-05 15:28 52.59997 9.73972 36890 ft 459 kts 96°
2026-05-05 15:28 52.59639 9.84466 36893 ft 459 kts 96°
2026-05-05 15:29 52.59276 9.94940 36890 ft 459 kts 97°
2026-05-05 15:29 52.58908 10.05347 36897 ft 459 kts 97°
2026-05-05 15:30 52.58533 10.15827 36890 ft 459 kts 97°
2026-05-05 15:30 52.58150 10.26381 36886 ft 460 kts 97°
2026-05-05 15:30 52.57950 10.31639 36740 ft 461 kts 97°
2026-05-05 15:31 52.57748 10.36826 36437 ft 459 kts 97°
2026-05-05 15:31 52.57543 10.42115 35890 ft 456 kts 97°
2026-05-05 15:31 52.57344 10.47249 35349 ft 455 kts 97°
2026-05-05 15:31 52.57142 10.52430 34787 ft 453 kts 97°
2026-05-05 15:32 52.56936 10.57595 34216 ft 452 kts 97°
2026-05-05 15:32 52.56729 10.62747 33643 ft 452 kts 97°
2026-05-05 15:32 52.56518 10.67887 33084 ft 450 kts 97°
2026-05-05 15:32 52.56304 10.73022 32530 ft 449 kts 97°
2026-05-05 15:33 52.56091 10.78131 31964 ft 448 kts 97°
2026-05-05 15:33 52.55875 10.83233 31416 ft 446 kts 97°
2026-05-05 15:33 52.55656 10.88316 30872 ft 445 kts 97°
2026-05-05 15:33 52.55435 10.93371 30340 ft 443 kts 98°
2026-05-05 15:34 52.55213 10.98415 29809 ft 441 kts 98°
2026-05-05 15:34 52.54992 11.03422 29299 ft 438 kts 98°
2026-05-05 15:34 52.54773 11.08389 28796 ft 435 kts 97°
2026-05-05 15:34 52.54776 11.13345 28347 ft 432 kts 91°
2026-05-05 15:35 52.54893 11.18249 27898 ft 428 kts 90°
2026-05-05 15:35 52.55010 11.23112 27437 ft 423 kts 91°
2026-05-05 15:35 52.55124 11.27934 26987 ft 419 kts 90°
2026-05-05 15:35 52.55235 11.32701 26532 ft 415 kts 91°
2026-05-05 15:36 52.55340 11.37363 26070 ft 411 kts 91°
2026-05-05 15:36 52.55441 11.42040 25605 ft 408 kts 91°
2026-05-05 15:36 52.55538 11.46689 25127 ft 405 kts 91°
2026-05-05 15:36 52.55631 11.51304 24636 ft 402 kts 91°
2026-05-05 15:37 52.55723 11.55887 24094 ft 401 kts 91°
2026-05-05 15:37 52.55814 11.60467 23521 ft 400 kts 91°
2026-05-05 15:37 52.55903 11.65026 22946 ft 400 kts 91°
2026-05-05 15:37 52.55993 11.69593 22370 ft 399 kts 91°
2026-05-05 15:38 52.56083 11.74152 21794 ft 399 kts 91°
2026-05-05 15:38 52.56169 11.78707 21217 ft 399 kts 90°
2026-05-05 15:38 52.56253 11.83266 20640 ft 398 kts 90°
2026-05-05 15:38 52.56335 11.87814 20061 ft 398 kts 90°
2026-05-05 15:39 52.56415 11.92362 19440 ft 399 kts 90°
2026-05-05 15:39 52.56491 11.96922 18811 ft 400 kts 90°
2026-05-05 15:39 52.56563 12.01489 18186 ft 400 kts 90°
2026-05-05 15:39 52.56634 12.06079 17557 ft 401 kts 90°
2026-05-05 15:40 52.56698 12.10600 16938 ft 401 kts 91°
2026-05-05 15:40 52.56724 12.15179 16308 ft 400 kts 91°
2026-05-05 15:40 52.56720 12.19751 15706 ft 400 kts 92°
2026-05-05 15:40 52.56802 12.24306 15104 ft 399 kts 84°
2026-05-05 15:41 52.57209 12.28812 14500 ft 398 kts 82°
2026-05-05 15:41 52.57636 12.33299 13901 ft 396 kts 82°
2026-05-05 15:41 52.58069 12.37753 13294 ft 394 kts 82°
2026-05-05 15:41 52.58503 12.42185 12697 ft 391 kts 81°
2026-05-05 15:42 52.58936 12.46609 12106 ft 388 kts 81°
2026-05-05 15:42 52.59169 12.50955 11855 ft 373 kts 95°
2026-05-05 15:42 52.58570 12.54956 11713 ft 353 kts 117°
2026-05-05 15:42 52.57245 12.58152 11594 ft 335 kts 133°
2026-05-05 15:43 52.55696 12.60977 11482 ft 322 kts 135°
2026-05-05 15:43 52.54202 12.63641 11336 ft 311 kts 135°
2026-05-05 15:43 52.52766 12.66198 11124 ft 305 kts 135°
2026-05-05 15:43 52.51332 12.68738 10780 ft 302 kts 135°
2026-05-05 15:44 52.49903 12.71257 10342 ft 303 kts 135°
2026-05-05 15:44 52.48455 12.73782 9941 ft 302 kts 135°
2026-05-05 15:44 52.47005 12.76285 9463 ft 304 kts 135°
2026-05-05 15:44 52.45537 12.78795 8970 ft 306 kts 135°
2026-05-05 15:45 52.44060 12.81295 8449 ft 303 kts 135°
2026-05-05 15:45 52.42614 12.83724 7946 ft 292 kts 135°
2026-05-05 15:45 52.41201 12.86085 7454 ft 289 kts 135°
2026-05-05 15:45 52.39799 12.88415 6958 ft 286 kts 135°
2026-05-05 15:46 52.38407 12.90713 6450 ft 283 kts 135°
2026-05-05 15:46 52.37022 12.92983 5950 ft 281 kts 135°
2026-05-05 15:46 52.35647 12.95224 5451 ft 278 kts 135°
2026-05-05 15:46 52.34278 12.97440 4947 ft 275 kts 135°
2026-05-05 15:47 52.32920 12.99617 4453 ft 272 kts 135°
2026-05-05 15:47 52.32027 13.01039 4138 ft 270 kts 135°
2026-05-05 15:47 52.30223 13.03874 3468 ft 268 kts 135°
2026-05-05 15:47 52.28878 13.05967 3066 ft 266 kts 133°
2026-05-05 15:48 52.27830 13.08387 2988 ft 260 kts 108°
2026-05-05 15:48 52.27447 13.11163 2994 ft 239 kts 97°
2026-05-05 15:48 52.27224 13.13842 3000 ft 235 kts 95°
2026-05-05 15:48 52.27273 13.16446 3006 ft 231 kts 72°
2026-05-05 15:49 52.27800 13.18796 3025 ft 212 kts 66°
2026-05-05 15:49 52.28335 13.20964 3018 ft 200 kts 66°
2026-05-05 15:49 52.28850 13.23083 3005 ft 203 kts 67°
2026-05-05 15:49 52.29371 13.25240 2880 ft 205 kts 67°
2026-05-05 15:50 52.29887 13.27385 2641 ft 198 kts 67°
2026-05-05 15:50 52.30368 13.29392 2398 ft 183 kts 68°
2026-05-05 15:50 52.30825 13.31294 2163 ft 177 kts 68°
2026-05-05 15:50 52.31273 13.33159 1937 ft 179 kts 68°
2026-05-05 15:51 52.31728 13.35059 1717 ft 180 kts 68°
2026-05-05 15:51 52.32182 13.36959 1457 ft 178 kts 68°
2026-05-05 15:51 52.32609 13.38742 1227 ft 162 kts 68°
2026-05-05 15:51 52.33006 13.40403 1020 ft 153 kts 68°
2026-05-05 15:52 52.33385 13.41989 824 ft 147 kts 69°
2026-05-05 15:52 52.33754 13.43536 634 ft 144 kts 69°
2026-05-05 15:52 52.34115 13.45051 440 ft 141 kts 68°
2026-05-05 15:52 52.34469 13.46543 252 ft 140 kts 69°
2026-05-05 15:53 52.34810 13.47995 164 ft 128 kts 68°
2026-05-05 15:53 52.35072 13.49076 154 ft 62 kts 68°
2026-05-05 15:53 52.35174 13.49493 154 ft 36 kts 68°
2026-05-05 15:53 52.35278 13.49861 154 ft 35 kts 48°
2026-05-05 15:54 52.35422 13.50056 154 ft 19 kts 39°
2026-05-05 15:54 52.35533 13.50203 155 ft 22 kts 39°
2026-05-05 15:54 52.35581 13.50267 155 ft 5 kts 41°
2026-05-05 15:54 52.35597 13.50296 155 ft 0 kts 52°
2026-05-05 15:55 52.35605 13.50320 155 ft 8 kts 60°
2026-05-05 15:55 52.35628 13.50407 155 ft 8 kts 70°
2026-05-05 15:55 52.35644 13.50486 155 ft 7 kts 71°
2026-05-05 15:55 52.35661 13.50561 155 ft 8 kts 69°
2026-05-05 15:56 52.35680 13.50640 155 ft 7 kts 69°
2026-05-05 15:56 52.35696 13.50708 155 ft 6 kts 69°
2026-05-05 15:56 52.35716 13.50788 155 ft 8 kts 64°
2026-05-05 15:56 52.35770 13.50825 155 ft 12 kts 349°
2026-05-05 15:57 52.35848 13.50775 155 ft 12 kts 338°
2026-05-05 15:57 52.35927 13.50727 155 ft 12 kts 339°
2026-05-05 15:57 52.36002 13.50680 155 ft 11 kts 339°
2026-05-05 15:57 52.36069 13.50638 155 ft 10 kts 339°
2026-05-05 15:58 52.36117 13.50666 155 ft 8 kts 64°
2026-05-05 15:58 52.36134 13.50737 155 ft 0 kts 69°
2026-05-05 15:58 52.36137 13.50748 155 ft 3 kts 69°
2026-05-05 15:59 52.36138 13.50752 155 ft 0 kts 69°